Regional Weather Roundup
Issued by NWS Kansas City/Pleasant Hill, MO

Home | Current Version | Previous Version | Text Only | Print | Product List | Glossary On
Versions: 1 2 3 4 5 6 7 8 9 10 11 12 13 14 15 16 17 18 19 20 21 22 23 24 25 26 27
000
ASUS43 KEAX 231510
RWREAX

WEATHER ROUNDUP FOR EASTERN KANSAS AND NORTHWEST MISSOURI
NATIONAL WEATHER SERVICE KANSAS CITY/PLEASANT HILL MO
1000 AM CDT SAT SEP 23 2017

KSZ040-057-103>105-MOZ028-029-037-043-231600-
...KANSAS CITY METROPOLITAN AREA...

CITY           SKY/WX    TMP DP  RH WIND       PRES   REMARKS
K.C. INTL      MOSUNNY   80  70  71 S10       30.04R
K.C. DOWNTOWN  SUNNY     82  69  64 S6        30.03R
LEES SUMMIT    SUNNY     80  70  71 SW8       30.05R
OLATHE - IXD   SUNNY     79  68  69 S9        30.04R
OLATHE - OJC   SUNNY     78  70  76 S9        30.05R
LAWRENCE       SUNNY     79  69  71 SE7       30.02R

$$

MOZ001>008-011>017-020>025-030>033-038>040-044>046-053-054-231600-
...NORTHERN AND CENTRAL MISSOURI...

CITY           SKY/WX    TMP DP  RH WIND       PRES   REMARKS
ST. JOSEPH     SUNNY     82  69  64 S10       30.02R
MOSBY          SUNNY     77  68  73 CALM      30.04S
WARRENSBURG    SUNNY     77  68  73 S5        30.05S
WHITEMAN AFB   SUNNY     79  78  95 S6        30.05R
CLINTON        NOT AVBL
SEDALIA        SUNNY     82  71  69 S7        30.08R
WARSAW         NOT AVBL
CHILLICOTHE      N/A     81  70  69 SE5       30.05R
KIRKSVILLE     SUNNY     81  69  67 SW3       30.08S

$$

MOZ041-047>049-056>058-063>065-088>090-097-231600-
...EASTERN AND SOUTHERN MISSOURI...

CITY           SKY/WX    TMP DP  RH WIND       PRES   REMARKS
ST. LOUIS INTL SUNNY     84  67  56 CALM      30.09R
SPIRIT OF STL  SUNNY     81  70  69 CALM      30.07S
COLUMBIA       SUNNY     80  69  69 VRB3      30.08R
JEFFERSON CITY SUNNY     77  67  71 SE5       30.07R
ROLLA          SUNNY     82  67  60 SW8       30.10R
OSAGE BEACH    SUNNY     79  69  71 S5        30.08S
SPRINGFIELD    SUNNY     81  69  67 S7        30.08R
BRANSON        SUNNY     82  66  57 CALM      30.09S
JOPLIN         SUNNY     81  71  71 S8        30.05R
WEST PLAINS    SUNNY     81  66  60 VRB3      30.11R

$$

IAZ060-094-KSZ022-034>040-054-083-096-NEZ052-066-093-231600-
...KANSAS...SOUTHEAST NEBRASKA AND IOWA...

CITY           SKY/WX    TMP DP  RH WIND       PRES   REMARKS
TOPEKA         SUNNY     81  69  67 S7        30.01R
MANHATTAN      SUNNY     82  67  60 S14G20    29.97R
EMPORIA        SUNNY     77  66  68 S13       30.01R
CHANUTE        SUNNY     80  70  71 S13       30.04R
WICHITA        MOSUNNY   81  68  64 S20       29.98R
OMAHA          PTSUNNY   80  67  64 S14       29.97S
LINCOLN        SUNNY     81  66  60 S14       29.95S
FALLS CITY     SUNNY     80  67  64 S8        30.00R
LAMONI         SUNNY     78  70  76 SE6       30.05R
DES MOINES     MOSUNNY   80  69  69 S6        30.03R

$$





USA.gov is the U.S. government's official web portal to all federal, state and local government web resources and services.